Weather History for Guthrie, OK

Change the Weather History Date:

Monday, November 26, 2012

  Actual Average Record
Temperature  
Mean Temperature 45 °F -  
Max Temperature 53 °F 57 °F 76 °F (1965)
Min Temperature 35 °F 37 °F 12 °F (1975)
Degree Days  
Heating Degree Days 20    
Moisture  
Dew Point 29 °F    
Average Humidity 57    
Maximum Humidity 77    
Minimum Humidity 39    
Precipitation  
Precipitation 0.00 in - - ()
Sea Level Pressure  
Sea Level Pressure 30.12 in    
Wind  
Wind Speed 8 mph (NNE)    
Max Wind Speed 15 mph    
Max Gust Speed 26 mph    
Visibility 10 miles    
Events      
Averages and records for this station are not official NWS values.
T = Trace of Precipitation, MM = Missing Value Source: NWS Daily Summary

Daily Weather History Graph

Daily Weather History Graph

Search for Another Location

Airport:

Trip Planner

Search our weather history database for the weather conditions in past years. The results will help you decide how hot, cold, wet, or windy it might be!

Date:

Astronomy

Nov. 26, 2012 Rise Set
Actual Time 7:17 AM CST 5:16 PM CST
Civil Twilight 6:49 AM CST 5:44 PM CST
Nautical Twilight 6:17 AM CST 6:16 PM CST
Astronomical Twilight 5:47 AM CST 6:46 PM CST
Moon 4:08 PM CST (11/26) 5:30 AM CST (11/26)
Length of Visible Light 10h 55m
Length of Day
9h 59m
Waxing Gibbous, 97% of the Moon is Illuminated
Nov 26
Waxing Gibbous
Nov 28
Full
Dec 6
Last Quarter
Dec 13
New
Dec 19
First Quarter

Hourly Weather History & Observations

Time (CST) Temp. Windchill Dew Point Humidity Pressure Visibility Wind Dir Wind Speed Gust Speed Precip Events Conditions
12:53 AM 46.0 °F 42.5 °F 34.0 °F 63% 29.86 in 10.0 mi NE 6.9 mph - N/A   Clear
1:53 AM 44.1 °F 40.1 °F 34.0 °F 68% 29.86 in 10.0 mi NE 6.9 mph - N/A   Clear
2:53 AM 44.1 °F 41.5 °F 34.0 °F 68% 29.86 in 10.0 mi NE 4.6 mph - N/A   Clear
3:53 AM 42.1 °F 40.2 °F 33.1 °F 70% 29.87 in 10.0 mi NNE 3.5 mph - N/A   Clear
4:53 AM 39.9 °F 36.7 °F 33.1 °F 77% 29.88 in 10.0 mi NNE 4.6 mph - N/A   Clear
5:53 AM 39.9 °F 35.8 °F 32.0 °F 73% 29.91 in 10.0 mi North 5.8 mph - N/A   Clear
6:53 AM 39.0 °F 35.7 °F 30.9 °F 73% 29.94 in 10.0 mi NNE 4.6 mph - N/A   Clear
7:53 AM 39.9 °F 35.1 °F 30.9 °F 70% 29.99 in 10.0 mi North 6.9 mph - N/A   Clear
8:53 AM 43.0 °F 37.2 °F 32.0 °F 65% 30.03 in 10.0 mi NNE 10.4 mph 16.1 mph N/A   Clear
9:53 AM 45.0 °F 39.7 °F 32.0 °F 60% 30.08 in 10.0 mi North 10.4 mph 18.4 mph N/A   Clear
10:53 AM 45.0 °F 40.1 °F 30.9 °F 58% 30.11 in 10.0 mi North 9.2 mph 20.7 mph N/A   Overcast
11:53 AM 46.9 °F - 30.9 °F 54% 30.12 in 9.0 mi North 10.4 mph 20.7 mph N/A   Overcast
12:53 PM 50.0 °F - 30.0 °F 46% 30.12 in 9.0 mi North 11.5 mph 21.9 mph N/A   Mostly Cloudy
1:53 PM 51.1 °F - 30.0 °F 44% 30.13 in 9.0 mi NNE 15.0 mph 24.2 mph N/A   Mostly Cloudy
2:53 PM 53.1 °F - 28.9 °F 40% 30.15 in 10.0 mi NNE 11.5 mph 25.3 mph N/A   Scattered Clouds
3:53 PM 52.0 °F - 28.0 °F 40% 30.19 in 10.0 mi NNE 13.8 mph 26.5 mph N/A   Clear
4:53 PM 50.0 °F - 26.1 °F 39% 30.25 in 10.0 mi NNE 10.4 mph 23.0 mph N/A   Clear
5:53 PM 46.0 °F 41.9 °F 24.1 °F 42% 30.28 in 10.0 mi NE 8.1 mph - N/A   Clear
6:53 PM 45.0 °F 39.7 °F 21.9 °F 40% 30.32 in 10.0 mi NE 10.4 mph 18.4 mph N/A   Clear
7:53 PM 43.0 °F 37.7 °F 23.0 °F 45% 30.36 in 10.0 mi NNE 9.2 mph 17.3 mph N/A   Clear
8:53 PM 39.9 °F 35.8 °F 23.0 °F 51% 30.40 in 10.0 mi NNE 5.8 mph - N/A   Clear
9:53 PM 39.0 °F 34.0 °F 23.0 °F 53% 30.42 in 10.0 mi Variable 6.9 mph - N/A   Clear
10:53 PM 37.0 °F 31.0 °F 25.0 °F 62% 30.43 in 10.0 mi NNE 8.1 mph - N/A   Clear
11:53 PM 35.1 °F 30.1 °F 26.1 °F 70% 30.43 in 10.0 mi NNE 5.8 mph - N/A   Clear